Regional Weather Roundup
Issued by NWS Kansas City/Pleasant Hill, MO

Home | Current Version | Previous Version | Graphics & Text | Print | Product List | Glossary Off
Versions: 1 2 3 4 5 6 7 8 9 10 11 12 13 14 15 16 17 18 19 20 21 22 23 24 25 26 27 28 29 30 31 32 33 34 35 36 37 38 39 40 41 42 43 44 45 46 47 48 49 50

323
ASUS43 KEAX 251910
RWREAX

WEATHER ROUNDUP FOR EASTERN KANSAS AND NORTHWEST MISSOURI
NATIONAL WEATHER SERVICE KANSAS CITY/PLEASANT HILL MO
200 PM CDT THU AUG 25 2016

KSZ040-057-103>105-MOZ028-029-037-043-252000-
...KANSAS CITY METROPOLITAN AREA...

CITY           SKY/WX    TMP DP  RH WIND       PRES   REMARKS
K.C. INTL      PTSUNNY   80  68  66 W3        30.07S
K.C. DOWNTOWN  PTSUNNY   83  68  60 CALM      30.05F
LEES SUMMIT    PTSUNNY   82  70  66 SW8       30.07F
OLATHE - IXD   PTSUNNY   82  69  64 SW7       30.07F
OLATHE - OJC   MOSUNNY   81  70  69 MISG      30.07F
LAWRENCE       MOSUNNY   82  70  66 SW5       30.06F

$$

MOZ001>008-011>017-020>025-030>033-038>040-044>046-053-054-252000-
...NORTHERN AND CENTRAL MISSOURI...

CITY           SKY/WX    TMP DP  RH WIND       PRES   REMARKS
ST. JOSEPH     CLOUDY    77  68  73 N9        30.09S
MOSBY          CLOUDY    79  70  73 NW3       30.06S
WHITEMAN AFB   PTSUNNY   83  74  72 W6        30.05F HX  90
CLINTON        PTSUNNY   84  73  70 CALM      30.07S HX  91
SEDALIA        PTSUNNY   87  71  58 SW8       30.07F HX  93
WARSAW         NOT AVBL
CHILLICOTHE      N/A     77  70  79 NE9       30.08
KIRKSVILLE     PTSUNNY   72  69  90 N10       30.10F

$$

MOZ041-047>049-056>058-063>065-088>090-097-252000-
...EASTERN AND SOUTHERN MISSOURI...

CITY           SKY/WX    TMP DP  RH WIND       PRES   REMARKS
ST. LOUIS INTL PTSUNNY   92  71  50 SW8       30.06F HX  98
SPIRIT OF STL  PTSUNNY   89  72  56 SW9       30.04F HX  96
COLUMBIA       PTSUNNY   86  72  62 W7        30.07S HX  92
JEFFERSON CITY SUNNY     88  71  57 VRB3      30.05F HX  94
ROLLA          MOSUNNY   86  71  60 SW7       30.08F HX  91
OSAGE BEACH    SUNNY     89  74  60 W6        30.07F HX  98
SPRINGFIELD    MOSUNNY   89  71  55 SW15      30.09F HX  95
BRANSON        MOSUNNY   88  70  55 W5        30.13F HX  92
JOPLIN         MOSUNNY   91  71  51 W10       30.06F HX  97
WEST PLAINS    PTSUNNY   89  71  55 W5        30.14F HX  95

$$

IAZ060-094-KSZ022-034>040-054-083-096-NEZ052-066-093-252000-
...KANSAS...SOUTHEAST NEBRASKA AND IOWA...

CITY           SKY/WX    TMP DP  RH WIND       PRES   REMARKS
TOPEKA           N/A     79  69  71 CALM      30.07F
MANHATTAN      CLOUDY    76  66  71 NE10      30.10F
EMPORIA        CLOUDY    81  69  67 SE6       30.08F
CHANUTE        MOSUNNY   87  73  62 S3        30.06F HX  94
WICHITA        PTSUNNY   83  66  56 W6        30.08F
OMAHA          CLOUDY    73  63  70 N8        30.14S
LINCOLN        CLOUDY    75  59  57 N8        30.15F
FALLS CITY     SUNNY     75  63  66 E8        30.10F
LAMONI         CLOUDY    71  63  75 VRB3      30.11R
DES MOINES     CLOUDY    74  62  66 E3        30.09S

$$





USA.gov is the U.S. government's official web portal to all federal, state and local government web resources and services.